Regional Weather Roundup
Issued by NWS Kansas City/Pleasant Hill, MO

Home | Current Version | Previous Version | Text Only | Print | Product List | Glossary On
Versions: 1 2 3 4 5 6 7 8 9 10 11 12 13 14 15 16 17 18 19 20 21 22 23 24 25 26 27 28 29 30 31 32 33 34 35 36 37 38 39 40 41 42 43 44 45 46 47 48 49 50
000
ASUS43 KEAX 122310
RWREAX

WEATHER ROUNDUP FOR EASTERN KANSAS AND NORTHWEST MISSOURI
NATIONAL WEATHER SERVICE KANSAS CITY/PLEASANT HILL MO
500 PM CST FRI FEB 12 2016

KSZ040-057-103>105-MOZ028-029-037-043-130000-
...KANSAS CITY METROPOLITAN AREA...

CITY           SKY/WX    TMP DP  RH WIND       PRES   REMARKS
K.C. INTL      CLEAR     31  13  47 N16       30.47R WCI  20
K.C. DOWNTOWN  CLEAR     34  12  40 N13       30.47R WCI  25
LEES SUMMIT    CLEAR     33  12  41 N15       30.46R WCI  23
OLATHE - IXD   CLEAR     34  14  43 N14       30.46R WCI  25
OLATHE - OJC   CLEAR     34  12  40 N15       30.45R WCI  24
LAWRENCE       CLEAR     34  13  41 N17       30.48R WCI  23

$$

MOZ001>008-011>017-020>025-030>033-038>040-044>046-053-054-130000-
...NORTHERN AND CENTRAL MISSOURI...

CITY           SKY/WX    TMP DP  RH WIND       PRES   REMARKS
ST. JOSEPH     CLEAR     29   8  41 N17       30.52R WCI  17
MOSBY          CLEAR     32  12  43 N13       30.48R WCI  22
WARRENSBURG    CLEAR     32  14  47 N13       30.46R WCI  22
WHITEMAN AFB   CLEAR     34  11  39 N14G21    30.44R WCI  24
CLINTON          N/A     36  18  48 N14       30.45R WCI  27
SEDALIA        CLEAR     35  12  38 N17       30.45R WCI  25
WARSAW         NOT AVBL
CHILLICOTHE      N/A     28   6  39 N13G20    30.51R WCI  17
KIRKSVILLE     CLEAR     22   2  42 NW13G22   30.46R WCI  10

$$

MOZ041-047>049-056>058-063>065-088>090-097-130000-
...EASTERN AND SOUTHERN MISSOURI...

CITY           SKY/WX    TMP DP  RH WIND       PRES   REMARKS
ST. LOUIS INTL PTCLDY    30  16  56 NW14      30.38R WCI  19
SPIRIT OF STL  PTCLDY    30  14  51 NW17      30.40R WCI  18
COLUMBIA       CLEAR     32  12  43 NW21      30.42R WCI  20
JEFFERSON CITY CLEAR     34  12  40 NW14      30.43R WCI  25
ROLLA          CLEAR     34  16  47 NW16      30.36R WCI  24
OSAGE BEACH    CLEAR     36  14  41 N8        30.41R WCI  29
SPRINGFIELD    CLEAR     41  22  46 N15G23    30.37R WCI  33
BRANSON        PTCLDY    45  23  42 NW15      30.36R
JOPLIN         CLEAR     43  25  49 N9        30.41R
WEST PLAINS    CLEAR     44  20  38 N9        30.33R

$$

IAZ060-094-KSZ022-034>040-054-083-096-NEZ052-066-093-130000-
...KANSAS...SOUTHEAST NEBRASKA AND IOWA...

CITY           SKY/WX    TMP DP  RH WIND       PRES   REMARKS
TOPEKA         CLEAR     35  14  42 N14       30.49R WCI  26
MANHATTAN      CLEAR     33  19  56 N8        30.50R WCI  26
EMPORIA        CLEAR     36  21  54 N14       30.45R WCI  27
CHANUTE        CLEAR     42  24  49 N14       30.44R WCI  35
WICHITA        CLOUDY    41  25  53 N15       30.46R WCI  33
OMAHA          PTCLDY    19   7  59 N17       30.59R WCI   4
LINCOLN        CLEAR     24  13  62 N17       30.56R WCI  11
FALLS CITY     CLEAR     28  11  48 N13       30.52R WCI  17
LAMONI         CLEAR     19   0  43 N15       30.50R WCI   5
DES MOINES     PTCLDY    15   0  51 NW15      30.52R WCI   0

$$




USA.gov is the U.S. government's official web portal to all federal, state and local government web resources and services.